Location: Newark
(38.6500°N, 6.7333°W)
Time: 15:15:31
(UTC+00:00)

OTV 5 (USA 277) - Visible Passes

Search period start: 20 October 2019 00:00
Search period end: 30 October 2019 00:00
Orbit: 310 x 324 km, 54.5° (Epoch: 17 October)

Date Brightness Start Highest point End Pass type
(mag) Time Alt. Az. Time Alt. Az. Time Alt. Az.
20 Oct ? 05:05:03 32° NNE 05:05:23 33° NE 05:07:55 10° ESE visible
21 Oct ? 05:19:48 70° W 05:19:58 75° SW 05:22:41 10° SE visible
22 Oct ? 05:34:41 21° SW 05:34:41 21° SW 05:36:35 10° S visible
26 Oct ? 19:40:10 10° SW 19:40:11 10° SW 19:40:11 10° SW visible
27 Oct ? 18:21:30 10° S 18:23:21 17° SE 18:24:03 15° ESE visible
28 Oct ? 18:35:05 10° SSW 18:37:44 53° SE 18:38:40 32° ENE visible
29 Oct ? 18:49:39 10° WSW 18:52:16 43° NW 18:53:10 30° N visible
